Language: 


Des rapports , des résumés tant et plus, au choix de chacun....


Données statistiques de la station
Quotidien Rapport Juin 25, 2017 Unités:  Anglais    Métrique   les deux
« Précédent Jour
Suivant Jour »
Quotidien Hebdomadaire Mensuel Annuel Actuel
  Haut: Bas: Moyen:
Température: 73.9 °F 61.2 °F 65.7 °F
Pt de rosée: 62.6 °F 55.4 °F 59.2 °F
Humidité: 96 % 56 % 81 %
Vitesse du vent: 23.3 mph 3.8 mph 10.9 mph
Rafales: 27.1 mph - -
Vent:- - WSW
Pression: 29.9 in 29.9 in -
Précipitation: 0 in    
Historical Graphs
 
 
Données statistiques pour Juin 25, 2017
Heure Température Point de rosée Pression Vent Vitesse du vent Refales Humidité Pluie (taux horaire)
00:04 64 °F 60.8 °F 29.9 in WSW 11 mph 15.2 mph 91 % 0 in
00:09 64 °F 60.8 °F 29.9 in West 13.6 mph 17.4 mph 91 % 0 in
00:14 64 °F 60.8 °F 29.9 in WSW 9.8 mph 17.4 mph 91 % 0 in
00:19 64 °F 60.8 °F 29.9 in SW 10.7 mph 13.9 mph 91 % 0 in
00:24 64 °F 60.8 °F 29.9 in WSW 10.1 mph 13.4 mph 91 % 0 in
00:29 64 °F 60.8 °F 29.9 in WSW 13 mph 13.4 mph 91 % 0 in
00:34 64 °F 60.8 °F 29.9 in South 10.1 mph 14.5 mph 91 % 0 in
00:39 64 °F 60.8 °F 29.9 in WSW 12.5 mph 14.5 mph 91 % 0 in
00:44 64 °F 60.8 °F 29.9 in West 14.1 mph 14.1 mph 91 % 0 in
00:49 64 °F 60.8 °F 29.9 in West 13.4 mph 15.4 mph 91 % 0 in
00:54 64 °F 60.8 °F 29.9 in WSW 13.2 mph 17.2 mph 91 % 0 in
01:00 64 °F 60.8 °F 29.9 in WSW 9.2 mph 17.2 mph 91 % 0 in
01:05 64 °F 60.8 °F 29.9 in WSW 3.8 mph 14.3 mph 91 % 0 in
01:10 64 °F 60.8 °F 29.9 in WSW 6 mph 16.3 mph 91 % 0 in
01:15 64.2 °F 62.6 °F 29.9 in SW 10.3 mph 16.3 mph 91 % 0 in
01:20 64.2 °F 62.6 °F 29.9 in WSW 7.4 mph 13.9 mph 91 % 0 in
01:25 64.2 °F 62.6 °F 29.9 in WSW 5.4 mph 18.6 mph 91 % 0 in
01:30 64 °F 60.8 °F 29.9 in WSW 10.7 mph 18.6 mph 91 % 0 in
01:35 64 °F 60.8 °F 29.9 in WSW 11.2 mph 17.7 mph 91 % 0 in
01:40 64 °F 60.8 °F 29.9 in WSW 12.3 mph 16.6 mph 91 % 0 in
01:45 64 °F 60.8 °F 29.9 in WSW 8.7 mph 15.4 mph 92 % 0 in
01:50 64 °F 60.8 °F 29.9 in WSW 14.1 mph 14.1 mph 92 % 0 in
01:55 64 °F 60.8 °F 29.9 in WSW 13.4 mph 15.4 mph 92 % 0 in
02:00 64 °F 60.8 °F 29.9 in West 15.2 mph 15.4 mph 92 % 0 in
02:05 64 °F 60.8 °F 29.9 in WSW 6 mph 15.9 mph 92 % 0 in
02:10 64 °F 60.8 °F 29.9 in WSW 8.7 mph 15.9 mph 92 % 0 in
02:15 64 °F 60.8 °F 29.9 in West 12.3 mph 14.5 mph 92 % 0 in
02:20 64 °F 60.8 °F 29.9 in West 12.8 mph 15.2 mph 92 % 0 in
02:25 64 °F 60.8 °F 29.9 in West 6.3 mph 15.2 mph 92 % 0 in
02:30 64 °F 60.8 °F 29.9 in WSW 12.1 mph 14.8 mph 92 % 0 in
02:35 64 °F 62.6 °F 29.9 in West 7.6 mph 14.5 mph 93 % 0 in
02:40 64 °F 62.6 °F 29.9 in WSW 7.4 mph 13.2 mph 93 % 0 in
02:41 63.9 °F 62.6 °F 29.9 in West 12.1 mph 12.5 mph 93 % 0 in
02:46 63.9 °F 62.6 °F 29.9 in West 8.7 mph 13.2 mph 93 % 0 in
02:52 63.9 °F 62.6 °F 29.9 in WSW 12.1 mph 14.5 mph 93 % 0 in
02:57 63.3 °F 60.8 °F 29.9 in WSW 7.6 mph 17.2 mph 94 % 0 in
03:02 63 °F 60.8 °F 29.9 in West 6 mph 17.2 mph 94 % 0 in
03:07 63 °F 60.8 °F 29.9 in WSW 3.8 mph 11 mph 94 % 0 in
03:12 62.8 °F 60.8 °F 29.9 in WSW 7.4 mph 11 mph 95 % 0 in
03:17 62.8 °F 60.8 °F 29.9 in WSW 4.7 mph 11 mph 95 % 0 in
03:22 62.8 °F 60.8 °F 29.9 in West 7.8 mph 10.5 mph 95 % 0 in
03:27 62.8 °F 60.8 °F 29.9 in WSW 8.1 mph 15.4 mph 95 % 0 in
03:32 62.6 °F 60.8 °F 29.9 in West 10.1 mph 15.4 mph 95 % 0 in
03:37 62.6 °F 62.6 °F 29.9 in West 8.1 mph 12.8 mph 96 % 0 in
03:42 62.4 °F 62.6 °F 29.9 in West 9.8 mph 13 mph 96 % 0 in
03:47 62.4 °F 62.6 °F 29.9 in WSW 7.4 mph 15.2 mph 96 % 0 in
03:52 62.2 °F 60.8 °F 29.9 in WSW 10.7 mph 15.2 mph 96 % 0 in
03:57 62.2 °F 60.8 °F 29.9 in WSW 9.8 mph 13.2 mph 96 % 0 in
04:02 62.2 °F 60.8 °F 29.9 in SSW 6.5 mph 13 mph 96 % 0 in
04:07 62.1 °F 60.8 °F 29.9 in WSW 7.4 mph 11 mph 96 % 0 in
04:12 62.1 °F 60.8 °F 29.9 in West 8.7 mph 12.5 mph 96 % 0 in
04:17 62.1 °F 60.8 °F 29.9 in WSW 8.1 mph 12.5 mph 96 % 0 in
04:22 62.1 °F 60.8 °F 29.9 in WSW 5.8 mph 12.3 mph 96 % 0 in
04:27 62.1 °F 60.8 °F 29.9 in SSW 7.6 mph 12.3 mph 96 % 0 in
04:32 62.1 °F 60.8 °F 29.9 in West 7.4 mph 13 mph 96 % 0 in
04:37 62.1 °F 60.8 °F 29.9 in WSW 17 mph 17 mph 95 % 0 in
04:42 62.1 °F 60.8 °F 29.9 in West 13.9 mph 18.6 mph 95 % 0 in
04:48 62.1 °F 60.8 °F 29.9 in West 12.3 mph 18.6 mph 95 % 0 in
04:53 62.1 °F 60.8 °F 29.9 in WSW 7.8 mph 15.4 mph 95 % 0 in
04:58 62.1 °F 60.8 °F 29.9 in SW 6.3 mph 13.4 mph 95 % 0 in
05:03 62.1 °F 60.8 °F 29.9 in SW 7.6 mph 13.4 mph 95 % 0 in
05:08 61.9 °F 60.8 °F 29.9 in WSW 11 mph 13.2 mph 93 % 0 in
05:13 61.9 °F 60.8 °F 29.9 in WSW 9.4 mph 13.2 mph 93 % 0 in
05:18 61.9 °F 60.8 °F 29.9 in WSW 12.3 mph 12.5 mph 93 % 0 in
05:23 61.9 °F 60.8 °F 29.9 in WSW 10.3 mph 16.6 mph 93 % 0 in
05:28 61.9 °F 60.8 °F 29.9 in WSW 8.1 mph 16.6 mph 93 % 0 in
05:33 61.9 °F 60.8 °F 29.9 in WSW 8.9 mph 10.7 mph 93 % 0 in
05:38 61.3 °F 59 °F 29.9 in WSW 7.8 mph 13.2 mph 91 % 0 in
05:43 61.3 °F 59 °F 29.9 in WSW 8.9 mph 13.2 mph 91 % 0 in
05:49 61.3 °F 59 °F 29.9 in SW 9.4 mph 12.8 mph 91 % 0 in
05:54 61.3 °F 59 °F 29.9 in West 8.9 mph 12.8 mph 91 % 0 in
05:59 61.3 °F 59 °F 29.9 in West 6.3 mph 10.5 mph 91 % 0 in
06:04 61.3 °F 59 °F 29.9 in West 12.1 mph 12.1 mph 91 % 0 in
06:09 61.3 °F 59 °F 29.9 in SW 9.6 mph 13.2 mph 91 % 0 in
06:14 61.3 °F 59 °F 29.9 in WSW 6.5 mph 13.2 mph 91 % 0 in
06:19 61.3 °F 59 °F 29.9 in West 16.6 mph 16.6 mph 91 % 0 in
06:24 61.3 °F 59 °F 29.9 in West 10.7 mph 16.6 mph 91 % 0 in
06:29 61.3 °F 59 °F 29.9 in WSW 5.4 mph 15.4 mph 91 % 0 in
06:34 61.3 °F 59 °F 29.9 in WSW 7.8 mph 13.2 mph 91 % 0 in
06:39 61.3 °F 59 °F 29.9 in West 5.8 mph 11.4 mph 91 % 0 in
06:44 61.3 °F 59 °F 29.9 in WSW 9.8 mph 12.8 mph 91 % 0 in
06:49 61.5 °F 59 °F 29.9 in WSW 10.7 mph 12.8 mph 92 % 0 in
06:54 61.5 °F 59 °F 29.9 in WSW 10.3 mph 11.4 mph 92 % 0 in
06:59 61.5 °F 59 °F 29.9 in West 8.5 mph 12.8 mph 92 % 0 in
07:04 61.5 °F 59 °F 29.9 in SW 7.4 mph 12.8 mph 92 % 0 in
07:09 61.7 °F 59 °F 29.9 in West 8.1 mph 15.7 mph 92 % 0 in
07:14 61.7 °F 59 °F 29.9 in West 10.5 mph 15.7 mph 92 % 0 in
07:19 61.7 °F 59 °F 29.9 in WSW 11.2 mph 11.2 mph 92 % 0 in
07:21 61.7 °F 59 °F 29.9 in WSW 8.7 mph 11.2 mph 92 % 0 in
07:26 61.7 °F 59 °F 29.9 in West 10.7 mph 12.8 mph 92 % 0 in
07:31 61.7 °F 59 °F 29.9 in WSW 7.2 mph 12.8 mph 92 % 0 in
07:36 61.7 °F 59 °F 29.9 in WSW 7.8 mph 11 mph 92 % 0 in
07:41 61.9 °F 59 °F 29.9 in WSW 7.6 mph 14.3 mph 91 % 0 in
07:46 62.1 °F 59 °F 29.9 in West 8.1 mph 14.3 mph 91 % 0 in
07:51 61.9 °F 59 °F 29.9 in WNW 8.1 mph 12.8 mph 91 % 0 in
07:56 61.9 °F 59 °F 29.9 in WSW 10.1 mph 12.8 mph 91 % 0 in
08:01 61.9 °F 59 °F 29.9 in West 8.7 mph 12.8 mph 91 % 0 in
08:06 62.1 °F 59 °F 29.9 in WSW 12.1 mph 15.2 mph 91 % 0 in
08:07 62.1 °F 59 °F 29.9 in West 9.6 mph 15.2 mph 91 % 0 in
08:12 62.2 °F 59 °F 29.9 in West 8.5 mph 15.2 mph 91 % 0 in
08:17 62.4 °F 59 °F 29.9 in West 10.3 mph 10.7 mph 90 % 0 in
08:22 62.6 °F 59 °F 29.9 in West 13 mph 13 mph 90 % 0 in
08:27 62.8 °F 59 °F 29.9 in West 14.8 mph 15.2 mph 89 % 0 in
08:32 63.1 °F 60.8 °F 29.9 in West 10.7 mph 15.2 mph 89 % 0 in
08:37 63.1 °F 60.8 °F 29.9 in WSW 8.1 mph 12.5 mph 89 % 0 in
08:42 63.3 °F 59 °F 29.9 in WSW 8.9 mph 14.1 mph 88 % 0 in
08:47 63.5 °F 60.8 °F 29.9 in West 9.6 mph 14.1 mph 87 % 0 in
08:52 63.7 °F 59 °F 29.9 in West 8.1 mph 14.1 mph 86 % 0 in
08:57 63.9 °F 59 °F 29.9 in WSW 7.8 mph 14.3 mph 86 % 0 in
09:02 64.2 °F 60.8 °F 29.9 in WSW 10.7 mph 14.3 mph 85 % 0 in
09:05 64.2 °F 60.8 °F 29.9 in West 8.5 mph 15.2 mph 85 % 0 in
09:10 65.1 °F 59 °F 29.9 in West 10.3 mph 15.4 mph 83 % 0 in
09:15 65.5 °F 59 °F 29.9 in West 9.8 mph 17.7 mph 81 % 0 in
09:20 65.1 °F 59 °F 29.9 in West 10.7 mph 18.8 mph 80 % 0 in
09:21 65.3 °F 59 °F 29.9 in West 12.5 mph 18.8 mph 80 % 0 in
09:26 65.7 °F 59 °F 29.9 in West 12.1 mph 18.8 mph 79 % 0 in
09:31 66 °F 60.8 °F 29.9 in West 11.9 mph 17.7 mph 80 % 0 in
09:36 66.4 °F 59 °F 29.9 in West 11 mph 17.7 mph 76 % 0 in
09:41 65.8 °F 57.2 °F 29.9 in West 9.6 mph 17.7 mph 76 % 0 in
09:46 65.8 °F 59 °F 29.9 in West 12.3 mph 17.9 mph 77 % 0 in
09:51 65.7 °F 59 °F 29.9 in WSW 16.3 mph 17.9 mph 78 % 0 in
09:56 66.2 °F 59 °F 29.9 in WSW 10.1 mph 16.3 mph 78 % 0 in
10:01 66.6 °F 59 °F 29.9 in WSW 11.9 mph 16.3 mph 77 % 0 in
10:06 66.6 °F 59 °F 29.9 in West 10.5 mph 17.2 mph 77 % 0 in
10:11 66.6 °F 59 °F 29.9 in West 14.8 mph 17.7 mph 77 % 0 in
10:16 67.6 °F 59 °F 29.9 in West 15.2 mph 17.7 mph 72 % 0 in
10:21 67.6 °F 59 °F 29.9 in WSW 13.9 mph 17.7 mph 72 % 0 in
10:26 68.2 °F 59 °F 29.9 in WSW 8.1 mph 17.4 mph 71 % 0 in
10:31 67.6 °F 59 °F 29.9 in WSW 12.5 mph 17.4 mph 72 % 0 in
10:36 68.2 °F 59 °F 29.9 in WSW 10.3 mph 17.4 mph 72 % 0 in
10:41 68.4 °F 59 °F 29.9 in WSW 10.1 mph 17.2 mph 71 % 0 in
10:47 68.5 °F 57.2 °F 29.9 in WSW 11 mph 17.7 mph 69 % 0 in
10:52 68.9 °F 59 °F 29.9 in West 12.1 mph 17.7 mph 68 % 0 in
10:57 69.4 °F 59 °F 29.9 in WSW 12.5 mph 17.7 mph 68 % 0 in
11:02 68.9 °F 59 °F 29.9 in WSW 8.1 mph 16.1 mph 68 % 0 in
11:05 68.5 °F 57.2 °F 29.9 in West 9.8 mph 16.1 mph 68 % 0 in
11:10 68.2 °F 57.2 °F 29.9 in WSW 12.5 mph 19 mph 68 % 0 in
11:15 68.4 °F 57.2 °F 29.9 in SSW 6.5 mph 19 mph 69 % 0 in
11:20 68.4 °F 57.2 °F 29.9 in West 10.3 mph 14.8 mph 69 % 0 in
11:25 67.8 °F 57.2 °F 29.9 in West 8.1 mph 14.8 mph 68 % 0 in
11:30 67.8 °F 57.2 °F 29.9 in SSW 11.4 mph 13.9 mph 69 % 0 in
11:35 67.5 °F 57.2 °F 29.9 in WSW 10.3 mph 17 mph 68 % 0 in
11:40 67.8 °F 57.2 °F 29.9 in West 13 mph 17 mph 69 % 0 in
11:45 67.6 °F 57.2 °F 29.9 in SW 6.3 mph 17 mph 68 % 0 in
11:50 68.5 °F 57.2 °F 29.9 in WSW 10.7 mph 17 mph 69 % 0 in
11:55 68.9 °F 57.2 °F 29.9 in West 6.3 mph 16.8 mph 67 % 0 in
12:00 69.3 °F 57.2 °F 29.9 in West 10.1 mph 17.7 mph 67 % 0 in
12:05 69.3 °F 57.2 °F 29.9 in WSW 6.3 mph 17.7 mph 67 % 0 in
12:10 69.4 °F 57.2 °F 29.9 in WSW 15.2 mph 18.6 mph 66 % 0 in
12:15 70 °F 57.2 °F 29.9 in WSW 7.6 mph 18.6 mph 66 % 0 in
12:16 70 °F 57.2 °F 29.9 in WSW 10.7 mph 18.6 mph 66 % 0 in
12:21 71.2 °F 57.2 °F 29.9 in WSW 6.5 mph 16.8 mph 61 % 0 in
12:26 69.8 °F 55.4 °F 29.9 in WSW 10.1 mph 16.8 mph 62 % 0 in
12:31 70.2 °F 57.2 °F 29.9 in WSW 12.5 mph 19.9 mph 62 % 0 in
12:36 71.1 °F 57.2 °F 29.9 in WSW 13 mph 19.9 mph 60 % 0 in
12:41 71.1 °F 55.4 °F 29.9 in WSW 6.5 mph 15.9 mph 59 % 0 in
12:46 71.1 °F 57.2 °F 29.9 in WSW 15.4 mph 15.9 mph 61 % 0 in
12:51 70.7 °F 57.2 °F 29.9 in West 13.2 mph 17.4 mph 60 % 0 in
12:56 70.3 °F 57.2 °F 29.9 in WSW 15.4 mph 17.4 mph 62 % 0 in
13:01 70.7 °F 57.2 °F 29.9 in WSW 7.8 mph 20.4 mph 62 % 0 in
13:06 70.5 °F 57.2 °F 29.9 in West 13.9 mph 20.4 mph 63 % 0 in
13:11 70.5 °F 57.2 °F 29.9 in WSW 8.7 mph 17.7 mph 64 % 0 in
13:16 70.3 °F 57.2 °F 29.9 in WSW 10.3 mph 17.7 mph 64 % 0 in
13:21 70.7 °F 59 °F 29.9 in West 12.3 mph 19.2 mph 64 % 0 in
13:26 70.3 °F 57.2 °F 29.9 in WSW 15.4 mph 20.6 mph 63 % 0 in
13:31 71.2 °F 57.2 °F 29.9 in WSW 13.9 mph 20.6 mph 62 % 0 in
13:36 72.1 °F 57.2 °F 29.9 in West 19.7 mph 19.9 mph 61 % 0 in
13:41 73.2 °F 59 °F 29.9 in WSW 15.4 mph 19.9 mph 60 % 0 in
13:46 72.9 °F 57.2 °F 29.9 in SW 13.9 mph 19.7 mph 58 % 0 in
13:51 73 °F 57.2 °F 29.9 in WSW 8.7 mph 19 mph 59 % 0 in
13:56 73.9 °F 59 °F 29.9 in WSW 13.2 mph 17.7 mph 58 % 0 in
14:01 72.5 °F 55.4 °F 29.9 in WSW 17.7 mph 20.6 mph 56 % 0 in
14:06 71.6 °F 55.4 °F 29.9 in WSW 14.8 mph 20.6 mph 57 % 0 in
14:11 71.2 °F 55.4 °F 29.9 in WSW 16.8 mph 20.6 mph 58 % 0 in
14:16 71.8 °F 57.2 °F 29.9 in WSW 13 mph 19.7 mph 59 % 0 in
14:21 71.4 °F 57.2 °F 29.9 in WNW 10.7 mph 20.1 mph 59 % 0 in
14:26 71.2 °F 57.2 °F 29.9 in WSW 14.8 mph 20.1 mph 60 % 0 in
14:31 71.6 °F 57.2 °F 29.9 in West 13 mph 23.7 mph 61 % 0 in
14:37 72.3 °F 57.2 °F 29.9 in West 12.3 mph 23.7 mph 61 % 0 in
14:42 73.2 °F 59 °F 29.9 in WSW 17.4 mph 24.4 mph 59 % 0 in
14:47 72.1 °F 57.2 °F 29.9 in West 17 mph 24.4 mph 60 % 0 in
14:52 71.2 °F 57.2 °F 29.9 in WSW 12.5 mph 21.9 mph 61 % 0 in
14:57 73.4 °F 59 °F 29.9 in WSW 14.5 mph 23.5 mph 61 % 0 in
15:02 73 °F 59 °F 29.9 in West 20.8 mph 23.5 mph 60 % 0 in
15:07 72 °F 57.2 °F 29.9 in WSW 12.3 mph 25.3 mph 59 % 0 in
15:12 70.9 °F 57.2 °F 29.9 in SSW 16.3 mph 26.8 mph 61 % 0 in
15:17 70.7 °F 57.2 °F 29.9 in WNW 18.6 mph 26.8 mph 62 % 0 in
15:22 71.4 °F 57.2 °F 29.9 in West 17.7 mph 21.5 mph 62 % 0 in
15:27 71.4 °F 57.2 °F 29.9 in WSW 23 mph 23 mph 61 % 0 in
15:32 72.1 °F 57.2 °F 29.9 in WSW 15.4 mph 23.7 mph 61 % 0 in
15:37 72.3 °F 57.2 °F 29.9 in West 23.3 mph 23.7 mph 59 % 0 in
15:42 72 °F 57.2 °F 29.9 in WSW 10.7 mph 24.2 mph 59 % 0 in
15:47 72.7 °F 57.2 °F 29.9 in WSW 14.8 mph 24.2 mph 58 % 0 in
15:52 72.7 °F 55.4 °F 29.9 in West 16.8 mph 23.3 mph 56 % 0 in
15:57 71.8 °F 55.4 °F 29.9 in West 17.7 mph 25.9 mph 57 % 0 in
16:02 71.4 °F 57.2 °F 29.9 in West 19.9 mph 25.9 mph 59 % 0 in
16:07 71.8 °F 57.2 °F 29.9 in West 14.3 mph 24.4 mph 61 % 0 in
16:12 70.5 °F 55.4 °F 29.9 in WSW 13.2 mph 27.1 mph 61 % 0 in
16:17 69.8 °F 57.2 °F 29.9 in WSW 11 mph 27.1 mph 63 % 0 in
16:22 69.1 °F 57.2 °F 29.9 in West 10.7 mph 22.6 mph 65 % 0 in
16:27 68.4 °F 57.2 °F 29.9 in West 14.5 mph 18.1 mph 67 % 0 in
16:32 68 °F 57.2 °F 29.9 in West 16.6 mph 17.9 mph 68 % 0 in
16:37 67.8 °F 57.2 °F 29.9 in West 16.8 mph 20.6 mph 70 % 0 in
16:42 67.8 °F 59 °F 29.9 in WSW 20.6 mph 20.8 mph 71 % 0 in
16:47 67.5 °F 57.2 °F 29.9 in West 11 mph 20.8 mph 71 % 0 in
16:52 67.5 °F 59 °F 29.9 in West 11 mph 20.4 mph 72 % 0 in
16:57 67.5 °F 59 °F 29.9 in West 8.7 mph 17.4 mph 72 % 0 in
17:02 67.5 °F 59 °F 29.9 in WSW 10.1 mph 16.3 mph 74 % 0 in
17:07 67.3 °F 59 °F 29.9 in WSW 10.1 mph 19.7 mph 74 % 0 in
17:12 67.5 °F 59 °F 29.9 in West 8.5 mph 19.7 mph 75 % 0 in
17:17 67.3 °F 59 °F 29.9 in West 8.7 mph 16.1 mph 75 % 0 in
17:23 67.1 °F 59 °F 29.9 in WSW 13.2 mph 14.1 mph 76 % 0 in
17:27 66.9 °F 59 °F 29.9 in WSW 10.3 mph 15.4 mph 76 % 0 in
17:28 66.9 °F 59 °F 29.9 in West 12.3 mph 15.4 mph 76 % 0 in
17:33 66.7 °F 59 °F 29.9 in SW 14.8 mph 19.9 mph 77 % 0 in
17:38 66.7 °F 59 °F 29.9 in WSW 8.1 mph 19.9 mph 77 % 0 in
17:43 67.1 °F 60.8 °F 29.9 in WSW 6.5 mph 14.8 mph 78 % 0 in
17:48 66.7 °F 60.8 °F 29.9 in WSW 10.3 mph 18.1 mph 79 % 0 in
17:53 66.4 °F 60.8 °F 29.9 in WSW 7.6 mph 18.1 mph 80 % 0 in
17:58 66.4 °F 60.8 °F 29.9 in SW 7.6 mph 12.5 mph 80 % 0 in
18:03 66.4 °F 60.8 °F 29.9 in WSW 12.3 mph 13 mph 81 % 0 in
18:08 66.6 °F 60.8 °F 29.9 in SW 7.6 mph 16.1 mph 81 % 0 in
18:13 67.1 °F 60.8 °F 29.9 in West 6 mph 17.2 mph 81 % 0 in
18:18 67.1 °F 60.8 °F 29.9 in WSW 13.2 mph 17.2 mph 80 % 0 in
18:23 66.9 °F 60.8 °F 29.9 in SW 4.9 mph 13.2 mph 81 % 0 in
18:28 66.7 °F 60.8 °F 29.9 in SW 7.4 mph 12.3 mph 81 % 0 in
18:33 66.6 °F 60.8 °F 29.9 in WSW 12.1 mph 12.5 mph 81 % 0 in
18:38 66.4 °F 60.8 °F 29.9 in WSW 8.5 mph 16.8 mph 81 % 0 in
18:43 66.2 °F 60.8 °F 29.9 in WSW 17.2 mph 17.2 mph 81 % 0 in
18:48 66.4 °F 60.8 °F 29.9 in West 8.7 mph 17.2 mph 81 % 0 in
18:53 66.6 °F 60.8 °F 29.9 in WSW 12.1 mph 15.9 mph 81 % 0 in
18:59 66.4 °F 60.8 °F 29.9 in West 10.5 mph 15.9 mph 80 % 0 in
19:04 66.4 °F 60.8 °F 29.9 in West 8.1 mph 15.4 mph 81 % 0 in
19:09 66.4 °F 60.8 °F 29.9 in WSW 7.6 mph 17.4 mph 81 % 0 in
19:14 66.4 °F 60.8 °F 29.9 in WSW 5.8 mph 17.4 mph 81 % 0 in
19:19 66.2 °F 60.8 °F 29.9 in WSW 10.7 mph 16.1 mph 81 % 0 in
19:24 66.4 °F 60.8 °F 29.9 in WSW 8.7 mph 17.2 mph 81 % 0 in
19:29 66 °F 60.8 °F 29.9 in West 13 mph 17.2 mph 82 % 0 in
19:30 66 °F 60.8 °F 29.9 in West 13 mph 17.2 mph 82 % 0 in
19:35 65.8 °F 60.8 °F 29.9 in WSW 7.6 mph 15.9 mph 82 % 0 in
19:40 65.7 °F 60.8 °F 29.9 in WSW 14.8 mph 14.8 mph 82 % 0 in
19:45 65.5 °F 60.8 °F 29.9 in WSW 11 mph 17.2 mph 83 % 0 in
19:50 65.1 °F 60.8 °F 29.9 in West 15.4 mph 17.4 mph 84 % 0 in
19:55 64.8 °F 60.8 °F 29.9 in WSW 12.1 mph 17.4 mph 86 % 0 in
20:00 64.6 °F 60.8 °F 29.9 in WSW 13.6 mph 16.1 mph 87 % 0 in
20:05 64.8 °F 60.8 °F 29.9 in WSW 7.4 mph 13.9 mph 88 % 0 in
20:10 64.8 °F 60.8 °F 29.9 in WSW 15.4 mph 20.8 mph 86 % 0 in
20:15 64.8 °F 60.8 °F 29.9 in WSW 13.2 mph 20.8 mph 86 % 0 in
20:20 64.8 °F 60.8 °F 29.9 in West 15.2 mph 19 mph 86 % 0 in
20:25 64.9 °F 60.8 °F 29.9 in WSW 12.5 mph 19.9 mph 86 % 0 in
20:30 64.9 °F 60.8 °F 29.9 in WSW 10.3 mph 19.9 mph 85 % 0 in
20:35 65.1 °F 60.8 °F 29.9 in West 10.7 mph 18.8 mph 85 % 0 in
20:39 64.9 °F 59 °F 29.9 in West 10.3 mph 25.7 mph 83 % 0 in
20:45 64.9 °F 59 °F 29.9 in West 9.6 mph 25.7 mph 83 % 0 in
20:50 64.9 °F 59 °F 29.9 in WSW 14.3 mph 22.1 mph 83 % 0 in
20:55 64.9 °F 59 °F 29.9 in West 11 mph 17.7 mph 82 % 0 in
21:00 64.9 °F 59 °F 29.9 in West 10.7 mph 17.7 mph 82 % 0 in
21:05 64.9 °F 59 °F 29.9 in West 14.1 mph 17.7 mph 82 % 0 in
21:10 64.9 °F 59 °F 29.9 in West 13.2 mph 17.7 mph 81 % 0 in
21:15 64.9 °F 59 °F 29.9 in WSW 8.7 mph 17.7 mph 81 % 0 in
21:20 64.9 °F 59 °F 29.9 in WSW 17.2 mph 17.9 mph 81 % 0 in
21:25 64.9 °F 59 °F 29.9 in WSW 6.7 mph 17.9 mph 81 % 0 in
21:30 64.8 °F 59 °F 29.9 in West 12.5 mph 19.7 mph 82 % 0 in
21:35 64.8 °F 59 °F 29.9 in West 8.7 mph 19.7 mph 82 % 0 in
21:40 64.8 °F 59 °F 29.9 in West 12.3 mph 17 mph 82 % 0 in
21:45 64.6 °F 59 °F 29.9 in WSW 10.3 mph 17 mph 81 % 0 in
21:50 64.6 °F 59 °F 29.9 in SW 10.1 mph 18.8 mph 81 % 0 in
21:55 64.4 °F 59 °F 29.9 in West 12.5 mph 19.7 mph 81 % 0 in
22:00 64.4 °F 59 °F 29.9 in West 10.1 mph 19.7 mph 81 % 0 in
22:05 64 °F 59 °F 29.9 in West 7.8 mph 13 mph 82 % 0 in
22:10 63.9 °F 59 °F 29.9 in WSW 7.8 mph 14.5 mph 82 % 0 in
22:16 63.7 °F 59 °F 29.9 in West 8.5 mph 14.5 mph 83 % 0 in
22:21 63.7 °F 59 °F 29.9 in WSW 14.8 mph 16.1 mph 83 % 0 in
22:26 63.7 °F 59 °F 29.9 in WSW 12.1 mph 16.1 mph 84 % 0 in
22:31 63.7 °F 59 °F 29.9 in West 8.1 mph 14.8 mph 84 % 0 in
22:36 63.7 °F 59 °F 29.9 in WSW 13.2 mph 14.8 mph 84 % 0 in
22:41 63.7 °F 59 °F 29.9 in West 13.6 mph 17 mph 83 % 0 in
22:46 63.7 °F 59 °F 29.9 in SW 12.8 mph 17.7 mph 83 % 0 in
22:51 63.7 °F 59 °F 29.9 in WSW 14.8 mph 17.7 mph 83 % 0 in
22:56 63.5 °F 59 °F 29.9 in WSW 6 mph 15.9 mph 83 % 0 in
22:57 63.3 °F 57.2 °F 29.9 in WSW 11.9 mph 15.9 mph 83 % 0 in
23:03 63.1 °F 57.2 °F 29.9 in WSW 9.2 mph 15.9 mph 83 % 0 in
23:08 62.8 °F 57.2 °F 29.9 in WSW 10.5 mph 15.9 mph 83 % 0 in
23:13 62.6 °F 57.2 °F 29.9 in West 10.5 mph 14.3 mph 83 % 0 in
23:18 62.2 °F 57.2 °F 29.9 in West 10.3 mph 15.2 mph 84 % 0 in
23:23 62.1 °F 57.2 °F 29.9 in West 7.8 mph 15.2 mph 85 % 0 in
23:28 61.9 °F 57.2 °F 29.9 in WSW 6.5 mph 12.5 mph 85 % 0 in
23:33 61.9 °F 57.2 °F 29.9 in WSW 6.5 mph 12.5 mph 86 % 0 in
23:38 61.5 °F 57.2 °F 29.9 in West 8.7 mph 13.4 mph 87 % 0 in
23:43 61.5 °F 57.2 °F 29.9 in WSW 10.7 mph 13.4 mph 87 % 0 in
23:48 61.3 °F 57.2 °F 29.9 in SW 7.8 mph 13.4 mph 88 % 0 in
23:53 61.3 °F 57.2 °F 29.9 in West 7.6 mph 12.1 mph 88 % 0 in
23:58 61.2 °F 59 °F 29.9 in WSW 8.1 mph 13.2 mph 89 % 0 in
Le Gheer Warneton
Courtoisie de Weather Underground - 2.25 mb

Mise a jour : 18/12/2017 21:33:12
Généré par Cumulus 1.9.4 (1099)